Carbondale, IL

7:46 AM CST on November 19, 2019 (GMT -0600)
Southern Illinois

Weather History for KMDH - August, 2019

Change the Weather History Date:

Thursday, August 8, 2019

  Actual Average Record
Temperature  
Mean Temperature 74 °F -  
Max Temperature 86 °F 87 °F 111 °F (1930)
Min Temperature 64 °F 63 °F 46 °F (1989)
Cooling Degree Days 9    
Growing Degree Days 24 (Base 50)    
Moisture  
Dew Point 68 °F    
Average Humidity 90    
Maximum Humidity 100    
Minimum Humidity 65    
Precipitation  
Precipitation 0.00 in - - ()
Sea Level Pressure  
Sea Level Pressure 29.91 in    
Wind  
Wind Speed 2 mph (SW)    
Max Wind Speed 9 mph    
Max Gust Speed -    
Visibility 5 miles    
Events Fog    
Averages and records for this station are not official NWS values.
T = Trace of Precipitation, MM = Missing Value Source: NWS Daily Summary

Daily Weather History Graph

Daily Weather History Graph

Search for Another Location

Airport or City:

Astronomy

Aug. 08, 2019 Rise Set
Actual Time 6:06 AM CDT 7:58 PM CDT
Civil Twilight 5:37 AM CDT 8:26 PM CDT
Nautical Twilight 5:03 AM CDT 9:01 PM CDT
Astronomical Twilight 4:25 AM CDT 9:38 PM CDT
Moon 2:34 PM CDT (8/8) 12:27 AM CDT (8/8)
Length of Visible Light 14h 49m
Length of Day
13h 52m
First Quarter, 60% of the Moon is Illuminated
Aug 8
First Quarter
Aug 15
Full
Aug 23
Last Quarter
Aug 30
New
Sep 5
First Quarter

Hourly Weather History & Observations

Time (CDT) Temp. Heat Index Dew Point Humidity Pressure Visibility Wind Dir Wind Speed Gust Speed Precip Events Conditions
12:52 AM 69.1 °F - 68.0 °F 96% 29.89 in 5.0 mi SSW 3.5 mph - N/A   Clear
1:07 AM 66.9 °F - 66.0 °F 97% 29.89 in 3.0 mi Calm Calm - N/A   Clear
1:21 AM 66.9 °F - 66.0 °F 97% 29.89 in 1.5 mi Calm Calm - N/A   Clear
1:23 AM 66.9 °F - 66.0 °F 97% 29.89 in 0.8 mi Calm Calm - N/A   Mist
1:38 AM 66.9 °F - 66.0 °F 97% 29.89 in 1.2 mi Calm Calm - N/A   Partly Cloudy
1:42 AM 66.9 °F - 66.0 °F 97% 29.89 in 0.8 mi Calm Calm - N/A   Mist
1:52 AM 66.9 °F - 66.0 °F 97% 29.88 in 1.0 mi North 4.6 mph - N/A   Mist
1:55 AM 66.9 °F - 66.0 °F 97% 29.89 in 2.0 mi NNE 4.6 mph - N/A   Partly Cloudy
2:06 AM 66.0 °F - 66.0 °F 100% 29.89 in 4.0 mi Calm Calm - N/A   Partly Cloudy
2:52 AM 66.0 °F - 64.9 °F 96% 29.88 in 4.0 mi Calm Calm - N/A   Clear
3:02 AM 66.0 °F - 64.9 °F 96% 29.89 in 1.5 mi Calm Calm - N/A   Clear
3:15 AM 64.9 °F - 64.9 °F 100% 29.89 in 3.0 mi Calm Calm - N/A   Clear
3:31 AM 66.0 °F - 64.9 °F 96% 29.91 in 1.8 mi Calm Calm - N/A   Clear
3:43 AM 66.9 °F - 66.0 °F 97% 29.90 in 3.0 mi Calm Calm - N/A   Clear
3:52 AM 64.9 °F - 64.9 °F 100% 29.89 in 4.0 mi Calm Calm - N/A   Partly Cloudy
4:04 AM 64.9 °F - 64.0 °F 97% 29.90 in 2.5 mi Calm Calm - N/A   Scattered Clouds
4:11 AM 64.9 °F - 64.0 °F 97% 29.90 in 5.0 mi South 3.5 mph - N/A   Scattered Clouds
4:14 AM 64.9 °F - 64.0 °F 97% 29.90 in 1.8 mi South 3.5 mph - N/A   Scattered Clouds
4:21 AM 64.9 °F - 64.9 °F 100% 29.90 in 1.5 mi SSW 3.5 mph - N/A   Mostly Cloudy
4:24 AM 64.9 °F - 64.0 °F 97% 29.90 in 3.0 mi SSW 3.5 mph - N/A   Scattered Clouds
4:52 AM 64.9 °F - 64.0 °F 97% 29.88 in 5.0 mi SSW 3.5 mph - N/A   Clear
5:45 AM 64.9 °F - 64.9 °F 100% 29.91 in 2.0 mi Calm Calm - N/A   Mostly Cloudy
5:52 AM 66.0 °F - 64.9 °F 96% 29.90 in 5.0 mi Calm Calm - N/A   Scattered Clouds
6:24 AM 64.9 °F - 64.0 °F 97% 29.92 in 1.8 mi Calm Calm - N/A   Partly Cloudy
6:34 AM 64.9 °F - 64.0 °F 97% 29.91 in 0.5 mi Calm Calm - N/A Fog Fog
6:40 AM 64.9 °F - 64.0 °F 97% 29.92 in 1.2 mi South 3.5 mph - N/A   Clear
6:42 AM 64.9 °F - 64.0 °F 97% 29.92 in 3.0 mi South 3.5 mph - N/A   Clear
6:52 AM 66.9 °F - 66.0 °F 97% 29.91 in 5.0 mi Calm Calm - N/A   Clear
7:06 AM 68.0 °F - 66.9 °F 96% 29.92 in 5.0 mi Calm Calm - N/A   Partly Cloudy
7:52 AM 72.0 °F - 70.0 °F 93% 29.91 in 10.0 mi Calm Calm - N/A   Clear
8:52 AM 75.9 °F - 71.1 °F 85% 29.94 in 10.0 mi SW 3.5 mph - N/A   Clear
9:52 AM 79.0 °F - 71.1 °F 77% 29.94 in 10.0 mi Calm Calm - N/A   Clear
10:52 AM 82.0 °F 86.3 °F 71.1 °F 69% 29.94 in 10.0 mi WSW 6.9 mph - N/A   Clear
11:52 AM 84.0 °F 89.0 °F 71.1 °F 65% 29.94 in 10.0 mi SW 6.9 mph - N/A   Clear
12:52 PM 84.9 °F 90.7 °F 72.0 °F 65% 29.93 in 10.0 mi SSW 8.1 mph - N/A   Clear
1:52 PM 84.9 °F 90.7 °F 72.0 °F 65% 29.93 in 10.0 mi West 6.9 mph - N/A   Clear
2:52 PM 84.0 °F 89.6 °F 72.0 °F 67% 29.92 in 10.0 mi WSW 9.2 mph - N/A   Scattered Clouds
3:52 PM 84.0 °F 89.6 °F 72.0 °F 67% 29.91 in 10.0 mi WSW 5.8 mph - N/A   Clear
4:52 PM 84.9 °F 90.7 °F 72.0 °F 65% 29.90 in 10.0 mi SW 9.2 mph - N/A   Clear
5:52 PM 82.9 °F 88.0 °F 72.0 °F 69% 29.90 in 10.0 mi WSW 8.1 mph - N/A   Partly Cloudy
6:52 PM 82.0 °F 86.7 °F 72.0 °F 71% 29.88 in 10.0 mi SW 5.8 mph - N/A   Clear
7:52 PM 78.1 °F - 73.0 °F 84% 29.88 in 10.0 mi Calm Calm - N/A   Clear
8:52 PM 75.0 °F - 72.0 °F 90% 29.90 in 10.0 mi Calm Calm - N/A   Clear
9:52 PM 73.9 °F - 72.0 °F 93% 29.92 in 10.0 mi Calm Calm - N/A   Clear
10:52 PM 72.0 °F - 72.0 °F 100% 29.92 in 8.0 mi SSW 3.5 mph - N/A   Clear
11:52 PM 73.0 °F - 72.0 °F 96% 29.93 in 9.0 mi South 3.5 mph - N/A   Clear